Weather History for Franklin, NC

Change the Weather History Date:

Friday, February 1, 2013

  Actual Average (KTOC) Record (KTOC)
Temperature  
Mean Temperature 30 °F -  
Max Temperature 40 °F 54 °F 57 °F (2014)
Min Temperature 18 °F 33 °F 30 °F (2014)
Degree Days  
Heating Degree Days 36    
Moisture  
Dew Point 8 °F    
Average Humidity 43    
Maximum Humidity 80    
Minimum Humidity 21    
Precipitation  
Precipitation 0.00 in - - ()
Sea Level Pressure  
Sea Level Pressure 30.19 in    
Wind  
Wind Speed 10 mph (NW)    
Max Wind Speed 20 mph    
Max Gust Speed 31 mph    
Visibility 10 miles    
Events Snow    
Averages and records for this station are not official NWS values.
T = Trace of Precipitation, MM = Missing Value Source: NWS Daily Summary

Daily Weather History Graph

Daily Weather History Graph

Search for Another Location

Airport:

Trip Planner

Search our weather history database for the weather conditions in past years. The results will help you decide how hot, cold, wet, or windy it might be!

Date:

Astronomy

Feb. 01, 2013 Rise Set
Actual Time 7:32 AM EST 6:02 PM EST
Civil Twilight 7:06 AM EST 6:29 PM EST
Nautical Twilight 6:35 AM EST 6:59 PM EST
Astronomical Twilight 6:05 AM EST 7:29 PM EST
Moon 11:52 PM EST 10:20 AM EST
Length of Visible Light 11h 23m
Length of Day
10h 29m
Waning Gibbous, 70% of the Moon is Illuminated
Feb 1
Waning Gibbous
Feb 3
Last Quarter
Feb 10
New
Feb 17
First Quarter
Feb 25
Full

Hourly Weather History & Observations

Time (EST) Temp. Windchill Dew Point Humidity Pressure Visibility Wind Dir Wind Speed Gust Speed Precip Events Conditions
12:15 AM 32.4 °F 29.1 °F 21.7 °F 65% 30.02 in 10.0 mi ENE 3.5 mph - N/A   Clear
12:35 AM 35.2 °F 29.5 °F 21.7 °F 58% 30.02 in 10.0 mi WSW 6.9 mph - N/A   Clear
12:55 AM 39.0 °F 31.4 °F 21.4 °F 49% 30.01 in 10.0 mi WSW 12.7 mph 24.2 mph N/A   Scattered Clouds
1:15 AM 39.2 °F 31.6 °F 21.6 °F 49% 30.00 in 10.0 mi WSW 12.7 mph 20.7 mph N/A   Mostly Cloudy
1:35 AM 40.1 °F 31.0 °F 21.7 °F 48% 30.00 in 10.0 mi West 18.4 mph 29.9 mph N/A   Mostly Cloudy
2:15 AM 40.6 °F 31.4 °F 22.5 °F 48% 29.99 in 10.0 mi West 19.6 mph 26.5 mph N/A   Overcast
2:35 AM 40.6 °F 33.4 °F 22.8 °F 49% 29.99 in 10.0 mi West 12.7 mph 20.7 mph N/A   Overcast
2:55 AM 40.5 °F 32.5 °F 23.9 °F 52% 29.98 in 10.0 mi West 15.0 mph 25.3 mph N/A   Overcast
3:15 AM 39.9 °F 30.8 °F 24.8 °F 55% 29.99 in 10.0 mi West 18.4 mph 26.5 mph N/A   Overcast
3:35 AM 39.6 °F 30.0 °F 25.3 °F 57% 29.97 in 10.0 mi West 19.6 mph 31.1 mph N/A   Overcast
3:55 AM 38.8 °F 33.2 °F 26.2 °F 61% 29.98 in 10.0 mi WNW 8.1 mph 20.7 mph N/A   Unknown
4:15 AM 36.1 °F 27.7 °F 28.4 °F 73% 30.00 in 4.0 mi NNW 12.7 mph 18.4 mph N/A Snow Light Snow
4:35 AM 32.9 °F 24.7 °F 27.3 °F 80% 30.01 in 3.0 mi NNW 10.4 mph 23.0 mph N/A Snow Light Snow
4:55 AM 32.9 °F 23.7 °F 26.2 °F 76% 30.01 in 7.0 mi NNW 12.7 mph 17.3 mph N/A Snow Light Snow
5:15 AM 33.3 °F 22.8 °F 22.3 °F 64% 30.03 in 10.0 mi WNW 16.1 mph 29.9 mph N/A   Overcast
5:35 AM 30.7 °F 20.0 °F 23.5 °F 75% 30.06 in 4.0 mi WNW 15.0 mph 25.3 mph N/A Snow Light Snow
6:15 AM 28.8 °F 18.4 °F 11.7 °F 49% 30.10 in 10.0 mi NW 12.7 mph 24.2 mph N/A   Scattered Clouds
6:35 AM 27.3 °F 17.7 °F 12.4 °F 53% 30.11 in 10.0 mi WNW 10.4 mph 20.7 mph N/A   Clear
6:55 AM 26.6 °F 15.2 °F 10.4 °F 51% 30.12 in 10.0 mi NW 13.8 mph 19.6 mph N/A   Clear
7:15 AM 26.1 °F 16.8 °F 4.5 °F 40% 30.13 in 10.0 mi WNW 9.2 mph 20.7 mph N/A   Clear
7:35 AM 25.0 °F 14.2 °F 3.9 °F 41% 30.15 in 10.0 mi WNW 11.5 mph 26.5 mph N/A   Clear
8:15 AM 23.7 °F 11.0 °F 6.3 °F 47% 30.18 in 10.0 mi NW 15.0 mph 21.9 mph N/A   Clear
8:35 AM 23.9 °F 12.9 °F 7.0 °F 49% 30.18 in 10.0 mi WNW 11.5 mph 20.7 mph N/A   Clear
8:55 AM 23.9 °F 15.8 °F 7.2 °F 49% 30.20 in 10.0 mi NW 6.9 mph 18.4 mph N/A   Clear
9:15 AM 23.9 °F 16.8 °F 7.5 °F 50% 30.21 in 10.0 mi WNW 5.8 mph - N/A   Clear
9:35 AM 23.9 °F 18.0 °F 8.1 °F 51% 30.22 in 10.0 mi NNW 4.6 mph - N/A   Clear
10:15 AM 24.8 °F 15.3 °F 8.2 °F 49% 30.25 in 10.0 mi North 9.2 mph 17.3 mph N/A   Clear
10:35 AM 25.2 °F 15.1 °F 6.4 °F 45% 30.25 in 10.0 mi North 10.4 mph 18.4 mph N/A   Clear
11:15 AM 26.4 °F 14.5 °F 5.5 °F 41% 30.25 in 10.0 mi North 15.0 mph 20.7 mph N/A   Clear
11:35 AM 27.9 °F 17.8 °F 5.2 °F 38% 30.25 in 10.0 mi North 11.5 mph - N/A   Clear
11:55 AM 27.5 °F 19.3 °F 1.8 °F 33% 30.26 in 10.0 mi NW 8.1 mph 20.7 mph N/A   Clear
12:15 PM 28.8 °F 19.5 °F 2.5 °F 33% 30.26 in 10.0 mi NNW 10.4 mph 20.7 mph N/A   Clear
12:35 PM 29.1 °F 17.9 °F 0.9 °F 30% 30.25 in 10.0 mi NNW 15.0 mph 19.6 mph N/A   Clear
12:55 PM 30.2 °F - 0.9 °F 29% 30.25 in 10.0 mi Calm Calm - N/A   Clear
1:15 PM 31.1 °F 24.5 °F 2.3 °F 29% 30.25 in 10.0 mi NW 6.9 mph - N/A   Clear
1:35 PM 31.5 °F 24.2 °F 1.8 °F 28% 30.24 in 10.0 mi North 8.1 mph - N/A   Clear
1:55 PM 31.8 °F 27.3 °F 0.5 °F 26% 30.24 in 10.0 mi NW 4.6 mph - N/A   Clear
2:15 PM 32.9 °F 25.3 °F 2.3 °F 27% 30.23 in 10.0 mi NW 9.2 mph - N/A   Clear
2:35 PM 32.0 °F 24.2 °F 1.2 °F 27% 30.23 in 10.0 mi NW 9.2 mph - N/A   Clear
2:55 PM 32.7 °F 26.4 °F 1.8 °F 27% 30.23 in 10.0 mi NW 6.9 mph 16.1 mph N/A   Clear
3:15 PM 32.4 °F 26.9 °F 1.2 °F 27% 30.23 in 10.0 mi WNW 5.8 mph 9.2 mph N/A   Clear
3:35 PM 32.7 °F 29.6 °F 1.2 °F 26% 30.23 in 10.0 mi NW 3.5 mph - N/A   Clear
3:55 PM 32.5 °F 24.2 °F -0.8 °F 24% 30.23 in 10.0 mi WNW 10.4 mph - N/A   Clear
4:15 PM 32.2 °F 24.4 °F -1.7 °F 24% 30.24 in 10.0 mi WNW 9.2 mph - N/A   Clear
4:35 PM 32.4 °F 25.3 °F -3.5 °F 22% 30.25 in 10.0 mi North 8.1 mph 16.1 mph N/A   Clear
4:55 PM 32.0 °F 27.5 °F -4.2 °F 21% 30.25 in 10.0 mi North 4.6 mph - N/A   Clear
5:15 PM 31.3 °F 22.7 °F -3.8 °F 22% 30.25 in 10.0 mi North 10.4 mph 17.3 mph N/A   Clear
5:35 PM 30.6 °F 22.4 °F -5.4 °F 21% 30.25 in 10.0 mi North 9.2 mph - N/A   Clear
5:55 PM 29.3 °F 20.8 °F -4.7 °F 23% 30.25 in 10.0 mi NNW 9.2 mph - N/A   Clear
6:15 PM 28.4 °F 21.2 °F -4.9 °F 24% 30.25 in 10.0 mi NNW 6.9 mph - N/A   Clear
6:35 PM 28.0 °F 20.0 °F -4.7 °F 24% 30.27 in 10.0 mi NW 8.1 mph - N/A   Clear
6:55 PM 27.1 °F 19.7 °F -2.6 °F 28% 30.27 in 10.0 mi North 6.9 mph - N/A   Clear
7:15 PM 27.0 °F 19.5 °F -3.3 °F 27% 30.28 in 10.0 mi North 6.9 mph - N/A   Clear
7:35 PM 26.2 °F 18.6 °F -2.7 °F 28% 30.29 in 10.0 mi North 6.9 mph - N/A   Clear
7:55 PM 26.1 °F 19.4 °F -3.3 °F 28% 30.29 in 10.0 mi NNW 5.8 mph - N/A   Clear
8:15 PM 26.1 °F 19.4 °F -2.6 °F 29% 30.29 in 10.0 mi NNW 5.8 mph - N/A   Clear
8:35 PM 25.7 °F 18.0 °F -1.8 °F 30% 30.29 in 10.0 mi North 6.9 mph - N/A   Clear
8:55 PM 25.3 °F 18.5 °F 0.3 °F 34% 30.29 in 10.0 mi North 5.8 mph - N/A   Clear
9:15 PM 25.3 °F 21.1 °F 0.7 °F 35% 30.30 in 10.0 mi North 3.5 mph - N/A   Clear
9:35 PM 25.0 °F 19.3 °F 1.4 °F 36% 30.30 in 10.0 mi North 4.6 mph - N/A   Clear
9:55 PM 23.9 °F - 4.1 °F 43% 30.30 in 10.0 mi Calm Calm - N/A   Clear
10:15 PM 21.6 °F 16.8 °F 9.0 °F 58% 30.30 in 10.0 mi WSW 3.5 mph - N/A   Clear
10:35 PM 21.0 °F 16.2 °F 9.3 °F 61% 30.30 in 10.0 mi WSW 3.5 mph - N/A   Clear
10:55 PM 20.7 °F - 9.9 °F 63% 30.30 in 10.0 mi Calm Calm - N/A   Clear
11:15 PM 19.9 °F - 10.4 °F 67% 30.31 in 10.0 mi Calm Calm - N/A   Clear
11:35 PM 19.2 °F - 11.3 °F 71% 30.31 in 10.0 mi Calm Calm - N/A   Clear
11:55 PM 18.5 °F - 12.6 °F 78% 30.31 in 10.0 mi Calm Calm - N/A   Clear